Location: Moscow Pond
(43.6842°N, 73.2366°W)
Time: 08:35:23
(UTC+00:00)

CENTAUR R/B - Pass Details

Date: 08 November 2025
Orbit: 633 x 1547 km, 63.4° (Epoch: 13 December)

Event Time Altitude Azimuth Distance (km) Brightness Sun altitude
Exits shadow 11:00:47 - 323° (NW) 4,128 5.3 -7.2°
Rises 11:00:52 0° 323° (NW) 4,105 5.3 -7.2°
Reaches altitude 10° 11:03:35 10° 330° (NNW) 3,259 4.8 -6.8°
Maximum altitude 11:11:28 48° 43° (NE) 1,798 4.1 -5.4°
Drops below altitude 10° 11:20:26 10° 116° (ESE) 3,706 7.5 -3.9°
Sets 11:23:43 0° 122° (ESE) 4,705 8.2 -3.3°
